Whiteman AFB, MO

10:30 PM CST on December 13, 2019 (GMT -0600)
Whiteman Air Force Base

Weather History for KSZL - October, 2019

Change the Weather History Date:

Tuesday, October 15, 2019

  Actual Average Record
Temperature  
Mean Temperature 58 °F -  
Max Temperature 67 °F 65 °F 87 °F (1999)
Min Temperature 46 °F 45 °F 32 °F (2018)
Degree Days  
Heating Degree Days 8    
Growing Degree Days 8 (Base 50)    
Moisture  
Dew Point 52 °F    
Average Humidity 74    
Maximum Humidity 100    
Minimum Humidity 39    
Precipitation  
Precipitation 0.00 in - - ()
Sea Level Pressure  
Sea Level Pressure 29.90 in    
Wind  
Wind Speed 11 mph (WNW)    
Max Wind Speed 16 mph    
Max Gust Speed 24 mph    
Visibility 10 miles    
Events Rain    
Averages and records for this station are not official NWS values.
T = Trace of Precipitation, MM = Missing Value Source: NWS Daily Summary

Daily Weather History Graph

Daily Weather History Graph

Search for Another Location

Airport or City:

Astronomy

Oct. 15, 2019 Rise Set
Actual Time 7:23 AM CDT 6:36 PM CDT
Civil Twilight 6:56 AM CDT 7:02 PM CDT
Nautical Twilight 6:25 AM CDT 7:33 PM CDT
Astronomical Twilight 5:54 AM CDT 8:04 PM CDT
Moon 7:57 PM CDT (10/15) 8:53 AM CDT (10/15)
Length of Visible Light 12h 06m
Length of Day
11h 12m
Full, 97% of the Moon is Illuminated
Oct 15
Full
Oct 21
Last Quarter
Oct 27
New
Nov 4
First Quarter
Nov 12
Full

Hourly Weather History & Observations

Time (CDT) Temp. Dew Point Humidity Pressure Visibility Wind Dir Wind Speed Gust Speed Precip Events Conditions
12:56 AM 60.3 °F 50.9 °F 71% 29.87 in 10.0 mi South 11.5 mph - N/A   Overcast
1:56 AM 60.8 °F 52.9 °F 75% 29.86 in 10.0 mi South 9.2 mph - N/A   Overcast
2:56 AM 60.3 °F 54.3 °F 81% 29.84 in 10.0 mi South 10.4 mph - N/A   Overcast
3:56 AM 61.9 °F 58.6 °F 89% 29.83 in 10.0 mi SSW 13.8 mph - N/A   Overcast
4:56 AM 62.8 °F 60.6 °F 93% 29.82 in 10.0 mi SSW 15.0 mph - N/A   Overcast
5:56 AM 61.7 °F 61.7 °F 100% 29.83 in 10.0 mi SSW 9.2 mph - N/A   Overcast
6:56 AM 60.8 °F 60.8 °F 100% 29.84 in 10.0 mi SSW 10.4 mph - N/A   Mostly Cloudy
7:56 AM 61.0 °F 61.0 °F 100% 29.84 in 10.0 mi SSW 8.1 mph - N/A   Mostly Cloudy
8:56 AM 63.3 °F 63.3 °F 100% 29.85 in 10.0 mi SW 10.4 mph - N/A   Mostly Cloudy
9:56 AM 65.8 °F 65.8 °F 100% 29.86 in 10.0 mi WSW 6.9 mph - N/A   Overcast
10:56 AM 67.5 °F 64.8 °F 91% 29.86 in 10.0 mi West 11.5 mph - N/A   Mostly Cloudy
11:47 AM 66.2 °F 64.4 °F 94% 29.86 in 10.0 mi West 10.4 mph - N/A   Mostly Cloudy
11:56 AM 66.9 °F 63.5 °F 89% 29.87 in 10.0 mi WNW 9.2 mph - 0.00 in   Mostly Cloudy
12:18 PM 64.4 °F 59.0 °F 83% 29.85 in 10.0 mi NW 6.9 mph - N/A Rain Light Rain
12:35 PM 64.4 °F 60.8 °F 88% 29.87 in 10.0 mi WNW 8.1 mph - N/A   Mostly Cloudy
12:40 PM 66.2 °F 59.0 °F 78% 29.87 in 10.0 mi WNW 8.1 mph - N/A   Mostly Cloudy
12:56 PM 66.4 °F 54.7 °F 66% 29.87 in 10.0 mi NNW 13.8 mph 24.2 mph 0.00 in   Mostly Cloudy
1:56 PM 59.7 °F 52.5 °F 77% 29.92 in 6.0 mi West 9.2 mph - 0.00 in Rain Light Rain
2:40 PM 59.0 °F 51.8 °F 77% 29.88 in 10.0 mi North 10.4 mph - N/A   Mostly Cloudy
2:56 PM 59.9 °F 51.6 °F 74% 29.87 in 10.0 mi North 10.4 mph - 0.00 in   Mostly Cloudy
3:56 PM 64.2 °F 43.0 °F 46% 29.90 in 10.0 mi NNW 15.0 mph 20.7 mph N/A   Mostly Cloudy
4:56 PM 63.9 °F 39.0 °F 40% 29.91 in 10.0 mi NNW 13.8 mph - N/A   Partly Cloudy
5:56 PM 61.7 °F 38.3 °F 42% 29.92 in 10.0 mi NNW 12.7 mph 24.2 mph N/A   Scattered Clouds
6:56 PM 58.1 °F 33.3 °F 39% 29.95 in 10.0 mi NNW 12.7 mph - N/A   Scattered Clouds
7:56 PM 54.5 °F 35.2 °F 48% 30.00 in 10.0 mi NNW 12.7 mph - N/A   Partly Cloudy
8:56 PM 51.1 °F 35.1 °F 54% 30.02 in 10.0 mi NNW 8.1 mph - N/A   Clear
9:56 PM 50.7 °F 33.8 °F 52% 30.05 in 10.0 mi NNW 16.1 mph - N/A   Clear
10:56 PM 48.9 °F 32.5 °F 53% 30.07 in 10.0 mi NNW 15.0 mph - N/A   Clear
11:56 PM 46.6 °F 33.1 °F 59% 30.09 in 10.0 mi NNW 10.4 mph - N/A   Clear